Tracking 20942 objects as of 15-Jul-2020
HD Live streaming from Space Station
objects crossing your sky now

INTELSAT 804

Track INTELSAT 804 now!
INTELSAT 804 is classified as:


NORAD ID: 25110
Int'l Code: 1997-083A
Perigee: 35,787.2 km
Apogee: 35,842.0 km
Inclination: 11.0 °
Period: 1,437.2 minutes
Semi major axis: 42185 km
RCS: 10.0118 m2 (large)
Launch date: December 21, 1997
Source: International Telecommunications Satellite Organization (ITSO)
Launch site: FRENCH GUIANA (FRGUI)
aabbcc
Your satellite tracking list
Your tracking list is empty




NASA's NSSDC Master Catalog

Two Line Element Set (TLE):
1 25110U 97083A   20196.58238648 +.00000108 +00000-0 +00000-0 0  9997
2 25110 010.9788 032.2820 0006492 015.9307 293.9061 01.00197330082641
Source of the keplerian elements: AFSPC